リニア彗星

221P/LINEAR (2002)

English version
Home page
Updated on June 20, 2009

---------------------------------------------------------------------

・ プロフィール

符号 221P/2002 JN16
発見日 2002年5月9日
発見光度 18.0等
発見者 Lincoln Laboratory Near-Earth Asteroid Research project

・ 軌道要素

Epoch 2002 July 25.0 TT = JDT 2452480.5
T 2002 July 27.59252 TT                                 MPC
q   1.7905750            (2000.0)            P               Q
n   0.15153589     Peri.   39.62647     -0.01484426     +0.98830761
a   3.4843815      Node   230.07711     -0.96024365     -0.05640265
e   0.4861140      Incl.   11.41248     -0.27876833     +0.14165740
P   6.50

・ 星図

・ 光度変化

        m1 = 14.5 + 5 logΔ + 10.0 log r

---------------------------------------------------------------------

軌道要素は、CBET 1831に掲載されたものです。
星図は StellaNavigator Ver.2.0 for Windows (アストロアーツ編著 / アスキー出版局刊) で作成したものです。
光度グラフはComet for Windowsで作成したものです。

---------------------------------------------------------------------

Copyright(C) Seiichi Yoshida (comet@aerith.net). All rights reserved.